Location: Unspecified
(0.0000°N, 0.0000°E)
Time: 22:06:38
(UTC+00:00)

Alouette 1 - Pass Details

Date: 29 October 2021
Orbit: 985 x 1019 km, 80.5° (Epoch: 07 December)

Event Time Altitude Azimuth Distance (km) Brightness Sun altitude
Rises 18:27:13 0° 341° (NNW) 3,732 9.1 -10.6°
Reaches altitude 10° 18:29:53 10° 335° (NNW) 2,779 8.5 -11.2°
Maximum altitude 18:35:54 43° 265° (W) 1,367 7.4 -12.7°
Drops below altitude 10° 18:41:54 10° 194° (SSW) 2,766 8.8 -14.1°
Sets 18:44:34 0° 188° (S) 3,713 9.3 -14.8°
